www.pogodaiklimat.ru

Погода и климат >> Архив погоды >> Иран >> Gach Saran


ПОГОДА в Gach Saran

  • Прогноз погоды в Gach Saran
  • Монитор погоды в Gach Saran
  • Климат города

АРХИВ ПОГОДЫ в Gach Saran

Время (UTC), дата Ветер
(напр.,м/с)
 
Видим.   Явления Облачность Т
(С)
Тd
(С)
f
(%)
Тe
(С)
Тes
(С)
Комфортность P
(гПа)
Po
(гПа)
Тmin
(С)
Tmax
(С)
R
(мм)
R24
(мм)
S
(см)
03 16.09 штиль 0 10 км 3/0
[Ac trans]
+25.8 +7.4 31 +26 +26 жарко 1003.2 925.6 +25.8
06 16.09 штиль 0 10 км ясно +36.4 +9.1 19 +35 +49 очень
жарко
1002.8 926.1
09 16.09 З 3 10 км ясно +40.1 +6.5 13 +37 +51 опасность
солнечного
удара
1000.8 924.2
12 16.09 З 5 8000 м мгла ясно +40.0 +5.2 12 +37 +41 очень
жарко
999.6 922.9
15 16.09 З 4 8000 м мгла ясно +35.1 +16.9 34 +38 +38 очень
душно
1000.5 923.3 +41.2
18 16.09 штиль 0 10 км ясно +31.2 +17.5 44 +35 +35 очень
душно
1001.2 924.7
21 16.09 штиль 0 10 км ясно +28.8 +17.4 50 +33 +33 очень
душно
1000.5 924.1
00 17.09 штиль 0 10 км ясно +26.5 +17.3 57 +31 +31 душно 999.9 923.4
03 17.09 штиль 0 10 км ясно +26.1 +17.5 59 +30 +30 душно 1001.1 923.8 +25.1
06 17.09 штиль 0 10 км ясно +35.1 +15.9 32 +37 +51 опасность
солнечного
удара
1000.9 924.3
09 17.09 З 3 10 км ясно +39.9 +11.9 19 +39 +53 опасность
солнечного
удара
999.5 923.1
12 17.09 З 4 10 км ясно +39.1 +12.1 20 +39 +43 очень
жарко
999.1 922.4
15 17.09 З 4 10 км ясно +33.5 +22.9 54 +44 +44 опасность
перегрева
1000.5 923.4 +40.3
18 17.09 З 1 8000 м мгла ясно +31.8 +23.1 60 +42 +42 опасность
перегрева
1001.0 924.7
21 17.09 З 1 8000 м мгла ясно +29.7 +22.4 65 +39 +39 очень
душно
1000.2 924.2
00 18.09 штиль 0 8000 м мгла ясно +28.1 +23.5 76 +38 +38 очень
душно
1000.0 923.9
03 18.09 штиль 0 6000 м мгла ясно +27.3 +22.5 75 +36 +36 очень
душно
1002.2 925.1 +26.7
06 18.09 штиль 0 6000 м мгла 3/0
[Ac trans]
+33.2 +22.0 52 +42 +53 опасность
перегрева
1002.9 926.2
09 18.09 ЮЗ 3 6000 м мгла 3/0
[Ac trans]
+37.4 +18.4 33 +41 +53 опасность
перегрева
1001.6 925.1
12 18.09 З 3 6000 м мгла 3/3 1200 м
[Sc diur, vesp]
+37.2 +17.8 32 +41 +44 опасность
перегрева
1000.9 924.2
15 18.09 З 2 6000 м мгла 3/3 1200 м
[Cu med, cong]
+33.5 +16.4 36 +36 +36 очень
душно
1003.3 925.8 +39.4
18 18.09 штиль 0 6000 м мгла {гроза} 3/3 1200 м
[Cu med, cong]
+30.3 +9.2 27 +30 +30 жарко 1004.8 927.3
21 18.09 штиль 0 10 км 3/3 1200 м
[Cu med, cong Ac trans]
+28.0 +9.8 32 +28 +28 жарко 1004.2 927.0
00 19.09 штиль 0 10 км 3/0
[Ac trans]
+26.5 +9.8 35 +27 +27 жарко 1004.2 926.8
06 19.09 штиль 0 10 км 3/3 1200 м
[Cu hum]
+34.3 +8.1 20 +33 +42 жарко 1005.5 928.1
09 19.09 ЮВ 2 10 км 1/1 1200 м
[Cu hum]
+39.1 +4.5 12 +36 +51 опасность
солнечного
удара
1003.1 926.1
12 19.09 З 4 10 км 3/3 1200 м
[Cu med, cong]
+38.8 +8.5 16 +37 +40 очень
жарко
1002.0 925.0
15 19.09 З 3 10 км 3/3 1200 м
[Cu med, cong]
+34.5 +15.9 33 +37 +37 очень
душно
1003.1 925.6 +40.8
18 19.09 З 3 10 км 3/3 1200 м
[Cu med, cong]
+31.5 +20.1 51 +38 +38 очень
душно
1003.6 927.0
21 19.09 штиль 0 10 км ясно +28.7 +19.9 59 +35 +35 очень
душно
1002.8 926.2
00 20.09 штиль 0 10 км ясно +26.8 +19.7 65 +33 +33 очень
душно
1002.4 925.7
03 20.09 ЮВ 1 10 км ясно +25.4 +19.1 68 +30 +31 душно 1003.8 926.2 +24.7
06 20.09 штиль 0 10 км ясно +34.9 +12.0 25 +35 +48 очень
жарко
1004.1 927.1
09 20.09 З 2 10 км ясно +39.3 +5.8 13 +37 +53 опасность
солнечного
удара
1002.2 925.5
12 20.09 З 6 10 км ясно +40.0 +5.2 12 +37 +40 очень
жарко
1000.6 923.7
15 20.09 СЗ 4 10 км ясно +36.9 +4.0 13 +34 +34 очень
жарко
1001.7 924.2 +41.1
18 20.09 СЗ 2 10 км ясно +34.5 +3.2 14 +32 +32 жарко 1002.1 925.4
21 20.09 штиль 0 10 км ясно +28.7 +4.2 21 +27 +27 жарко 1002.1 925.6
00 21.09 штиль 0 10 км ясно +25.7 +4.8 26 +25 +25 комфорт 1002.6 925.4
03 21.09 штиль 0 10 км ясно +25.2 +5.9 29 +25 +25 комфорт 1004.3 926.7 +23.0
06 21.09 штиль 0 10 км ясно +36.5 +4.7 14 +34 +47 очень
жарко
1004.2 927.6
09 21.09 З 5 10 км ясно +40.1 -0.4 8 +36 +45 очень
жарко
1003.0 926.1
12 21.09 З 7 10 км ясно +40.0 -2.3 7 +36 +38 очень
жарко
1002.2 925.0
15 21.09 СЗ 5 10 км 3/3 1200 м
[Cu med, cong]
+36.4 -4.9 7 +32 +32 жарко 1003.3 925.4 +40.6
18 21.09 СЗ 3 10 км 3/3 1200 м
[Cu med, cong]
+33.9 -4.9 8 +30 +30 жарко 1003.5 926.9
21 21.09 штиль 0 10 км ясно +28.8 -2.3 13 +26 +26 жарко 1004.3 927.4
00 22.09 штиль 0 10 км ясно +24.1 +8.1 36 +25 +25 комфорт 1005.1 927.6
03 22.09 штиль 0 10 км ясно +23.3 +15.4 61 +28 +28 душно 1005.4 927.6 +22.3
06 22.09 штиль 0 10 км ясно +33.2 +12.8 29 +34 +47 очень
жарко
1005.5 928.5
09 22.09 В 2 10 км ясно +38.6 +10.5 19 +35 +51 опасность
солнечного
удара
1004.1 927.0
12 22.09 З 7 10 км ясно +38.8 +6.5 14 +36 +38 очень
жарко
1003.3 925.8
15 22.09 СЗ 4 10 км 4/3 1200 м
[Cu med, cong Ci fib]
+36.5 -1.4 9 +33 +33 жарко 1004.5 926.4 +40.9
18 22.09 штиль 0 10 км ясно +33.2 0.0 12 +30 +30 жарко 1005.3 928.0
21 22.09 штиль 0 10 км ясно +29.3 +0.9 16 +27 +27 жарко 928.0

 

Местоположение метеостанции Gach Saran (Иран): широта 30.43 долгота 50.77 высота над уровнем моря 699 м.

В архиве по умолчанию представлена погода в Gach Saran за последнюю неделю. Архивные данные за месяц целиком и за предыдущие месяцы, начиная с января 2011 года, Вы можете получить, выбрав интересующий диапазон дат из раскрывающегося списка и нажав кнопку "Ввод!".


*Определитесь, кто Вы:
робот инопланетянин человек

Внимание! Время в таблицах - всемирное. Для получения местного времени необходимо прибавить поправку, которая в Gach Saran равна 3.5 ч.

Смотрите также архив погоды в соседних городах и на ближайших метеорологических станциях:

Погода в Yasuj (Иран) (82 км)
Погода в Omidieh (Иран) (112 км)
Погода в Khark (Иран) (137 км)
Погода в Bushehr Airport (Иран) (161 км)
Погода в Bushehr (Иран) (165 км)
Погода в Shiraz (Иран) (197 км)
Погода в Abadeh (Иран) (200 км)
Погода в Shahre-Kord (Иран) (206 км)
Погода в Masjed-Soleyman (Иран) (224 км)
Погода в Fao (Ирак) (224 км)

Пояснения к столбцам:

Ветер - указаны скорость ветра в м/с - средняя за 10 мин, порывы в срок и между сроками (в фигурных скобках) и направление, откуда дует ветер: С - северный, СВ - северо-восточный, В - восточный, ЮВ - юго-восточный, Ю - южный, ЮЗ - юго-западный, З - западный, СЗ - северо-западный.
Видимость - горизонтальная дальность видимости в метрах или километрах. При видимости от 1 до 10 км при отсутствии осадков обычно наблюдается дымка, при ухудшении видимости до 1 км и менее - туман. В сухую погоду видимость может ухудшаться дымом, пылью или мглою.
Явления - указаны атмосферные явления, наблюдавшиеся в срок или в последний час перед сроком; фигурными скобками обозначены явления, наблюдавшиеся между сроками (за 1-3 часа до срока); квадратными скобками обозначены град или гололедные отложения с указанием их диаметра в мм.
Облачность - указаны через наклонную черту общая и нижняя облачность в баллах и высота нижней границы облаков в метрах; квадратными скобками обозначены формы облаков: Ci - перистые, Cs - перисто-слоистые, Cc - перисто-кучевые, Ac - высококучевые, As - высокослоистые, Sc - слоисто-кучевые, Ns - слоисто-дождевые, Cu - кучевые, Cb - кучево-дождевые. Подробнее классификацию облаков см. в Атласе облаков (PDF).
T - Температура воздуха - температура, измеренная на высоте 2 м над землей.
Td - Температура точки росы - температура, при понижении до которой содержащийся в воздухе водяной пар достигнет насыщения.
f - Относительная влажность воздуха - влажноcть воздуха, измеренная на высоте 2 м над землей.
Te - Эффективная температура - температура, которую ощущает одетый по сезону человек в тени. Характеристика душности погоды. При расчете учитывается влияние влажности воздуха и скорости ветра на теплоощущения человека.
Tes - Эффективная температура на солнце - температура, которую ощущает человек, с поправкой на солнечный нагрев. Характеристика знойности погоды. Зависит от высоты солнца над горизонтом, облачности и скорости ветра. Ночью, в пасмурную погоду, а также при ветре 12 м/с и более поправка равна нулю.
P - Атмосферное давление - приведенное к уровню моря атмосферное давление.
Po - Атмосферное давление - измеренное на уровне метеостанции атмосферное давление.
Tmin - Минимальная температура - минимум температуры воздуха на высоте 2 м над землей.
Tmax - Максимальная температура - максимум температуры воздуха на высоте 2 м над землей.
R - Количество осадков - Количество выпавших осадков за период времени, мм. При наведении курсора мыши на число - период времени, за который выпало указанное количество осадков.
R24 - Количество осадков - Количество выпавших осадков за 24 часа, мм.
S - Снежный покров - Высота снежного покрова, см. При наведении курсора мыши на число - состояние снежного покрова и степень покрытия местности в баллах.